Weather History for Poughkeepsie, NY

Change the Weather History Date:

Friday, July 5, 2013

  Actual Average Record
Temperature  
Mean Temperature 83 °F 72 °F  
Max Temperature 92 °F 84 °F 100 °F (1955)
Min Temperature 73 °F 60 °F 44 °F (1979)
Degree Days  
Heating Degree Days 0 0  
Month to date heating degree days 0 0  
Since 1 June heating degree days 31 49  
Since 1 July heating degree days 0 0  
Cooling Degree Days 18 0  
Month to date cooling degree days 72 35  
Year to date cooling degree days 279 198  
Since 1 June cooling degree days 226 162  
Growing Degree Days 33 (Base 50)    
Moisture  
Dew Point 71 °F    
Average Humidity 68    
Maximum Humidity 87    
Minimum Humidity 49    
Precipitation  
Precipitation 0.00 in 0.12 in 1.31 in (1956)
Month to date precipitation 1.10 0.66  
Year to date precipitation 21.57 22.59  
Sea Level Pressure  
Sea Level Pressure 30.12 in    
Wind  
Wind Speed 4 mph (SW)    
Max Wind Speed 17 mph    
Max Gust Speed 23 mph    
Visibility 10 miles    
Events      
T = Trace of Precipitation, MM = Missing Value Source: NWS Daily Summary

Daily Weather History Graph

Daily Weather History Graph

Search for Another Location

Airport:

Trip Planner

Search our weather history database for the weather conditions in past years. The results will help you decide how hot, cold, wet, or windy it might be!

Date:

Astronomy

Jul. 05, 2013 Rise Set
Actual Time 5:27 AM EDT 8:32 PM EDT
Civil Twilight 4:53 AM EDT 9:06 PM EDT
Nautical Twilight 4:10 AM EDT 9:49 PM EDT
Astronomical Twilight 3:19 AM EDT 10:40 PM EDT
Moon 3:25 AM EDT (7/5) 6:24 PM EDT (7/5)
Length of Visible Light 16h 12m
Length of Day
15h 05m
Waning Crescent, 6% of the Moon is Illuminated
Jul 5
Waning Crescent
Jul 8
New
Jul 15
First Quarter
Jul 22
Full
Jul 29
Last Quarter

Hourly Weather History & Observations

Time (EDT) Temp. Heat Index Dew Point Humidity Pressure Visibility Wind Dir Wind Speed Gust Speed Precip Events Conditions
12:53 AM 78.1 °F - 72.0 °F 81% 30.16 in 10.0 mi SSW 3.5 mph - N/A   Clear
1:53 AM 77.0 °F - 71.1 °F 82% 30.16 in 10.0 mi Calm Calm - N/A   Clear
2:53 AM 75.9 °F - 71.1 °F 85% 30.16 in 10.0 mi Calm Calm - N/A   Clear
3:53 AM 77.0 °F - 70.0 °F 79% 30.15 in 10.0 mi Calm Calm - N/A   Clear
4:53 AM 77.0 °F - 70.0 °F 79% 30.16 in 10.0 mi WSW 4.6 mph - N/A   Clear
5:53 AM 75.0 °F - 70.0 °F 84% 30.18 in 10.0 mi Calm Calm - N/A   Clear
6:53 AM 77.0 °F - 71.1 °F 82% 30.17 in 10.0 mi Calm Calm - N/A   Clear
7:45 AM 78.8 °F - 71.6 °F 78% 30.19 in 10.0 mi SW 6.9 mph - N/A   Partly Cloudy
7:53 AM 79.0 °F - 72.0 °F 79% 30.18 in 10.0 mi WSW 3.5 mph - N/A   Clear
8:53 AM 81.0 °F 85.2 °F 72.0 °F 74% 30.17 in 10.0 mi SW 6.9 mph - N/A   Clear
9:53 AM 82.9 °F 88.0 °F 72.0 °F 69% 30.16 in 10.0 mi SW 6.9 mph - N/A   Partly Cloudy
10:53 AM 84.9 °F 90.7 °F 72.0 °F 65% 30.15 in 10.0 mi WSW 6.9 mph - N/A   Clear
11:53 AM 87.1 °F 93.6 °F 72.0 °F 61% 30.14 in 10.0 mi Variable 6.9 mph - N/A   Partly Cloudy
12:53 PM 89.1 °F 96.0 °F 72.0 °F 57% 30.13 in 10.0 mi SW 9.2 mph - N/A   Clear
1:53 PM 91.0 °F 96.6 °F 70.0 °F 50% 30.11 in 10.0 mi Variable 6.9 mph - N/A   Clear
2:53 PM 91.0 °F 96.6 °F 70.0 °F 50% 30.10 in 10.0 mi WSW 13.8 mph 18.4 mph N/A   Clear
3:53 PM 91.9 °F 97.4 °F 70.0 °F 48% 30.08 in 10.0 mi WSW 11.5 mph - N/A   Scattered Clouds
4:53 PM 91.0 °F 95.6 °F 69.1 °F 48% 30.06 in 10.0 mi SW 9.2 mph - N/A   Partly Cloudy
5:53 PM 90.0 °F 95.4 °F 70.0 °F 52% 30.06 in 10.0 mi WSW 9.2 mph - N/A   Clear
6:53 PM 90.0 °F 95.4 °F 70.0 °F 52% 30.04 in 10.0 mi SW 6.9 mph - N/A   Clear
7:53 PM 87.1 °F 92.0 °F 70.0 °F 57% 30.05 in 10.0 mi Calm Calm - N/A   Clear
8:53 PM 82.9 °F 87.5 °F 71.1 °F 67% 30.06 in 10.0 mi Calm Calm - N/A   Clear
9:53 PM 82.0 °F 86.3 °F 71.1 °F 69% 30.08 in 10.0 mi Calm Calm - N/A   Clear
10:53 PM 79.0 °F - 71.1 °F 77% 30.09 in 10.0 mi Calm Calm - N/A   Clear
11:53 PM 78.1 °F - 71.1 °F 79% 30.10 in 10.0 mi Calm Calm - N/A   Clear